Погода в Паньцзине

Китай     43°59′17″N   81°30′53″E
темп.,
°C
ветер,
м/с
пор.,
м/с
влажн.,
%
обл.,
%
осадки,
мм/ч
давл.,
гПа
погр.,
м
6 марта, сб
сб623:00−1св336914 0.0 103628
02:00−2св44638 0.0 103541
05:00−2св44570 0.0 103140
08:00−2св33570 0.0 103029
11:00+1всв22600 0.0 102745
14:00+4вюв22690 0.0 1023171
17:00+5всв23710 0.0 1019153
20:00+3св225619 0.0 101922
7 марта, вс
вс723:00+3ссв3346100 0.0 101927
02:00+2св224294 0.0 101823
05:00+1св224334 0.0 101622
08:00+1св114567 0.0 101722
11:00+2з115071 0.0 101722
14:00+4сз116185 0.0 1017181
17:00+4с1165100 0.0 1017108
20:00+2с1258100 0.0 101922
8 марта, пн
пн823:00+2св2357100 0.0 102222
02:00+2всв2356100 0.0 102223
05:00+1св2355100 0.0 102123
08:00+1св2354100 0.0 102224
11:00+3ссв2253100 0.0 102143
14:00+6зюз005750 0.0 1020325
17:00+6ссв215644 0.0 1020313
20:00+5ссв225457 0.0 102228
9 марта, вт
вт923:00+3ссв3352100 0.0 102528
02:00+3св235092 0.0 102624
05:00+2св3349100 0.0 102625
08:00+2св345199 0.0 102626
11:00+4св335671 0.0 102569
14:00+8всв345484 0.0 1022409
17:00+9св225899 0.0 1019313
20:00+7ссв236190 0.0 101926
10 марта, ср
ср1023:00+5св344977 0.0 101934
02:00+5св334541 0.0 101825
05:00+5св33478 0.0 101624
08:00+5св33476 0.0 101424
11:00+7св234993 0.0 101240
14:00+10ююв015193 0.0 1010292
17:00+11ссз225390 0.0 1009294
20:00+9св335694 0.0 101040